Total_Precipitation_Accumulation
0.00 0.00 0.00 0.00 0.00 0.00 0.00 0.00 0.00 0.02 0.04 0.05 0.09 0.11 0.18 0.24 0.59 1.20 1.76 3.13 2.51 1.63 1.11 1.16 1.30 0.69 0.32 0.12 0.05 0.02 0.02 0.02 0.02 0.02 0.02 0.03 0.03 0.03 0.03 0.02 0.04 0.09 0.12 0.12 0.10 0.15 0.16 0.11 0.05
0.00 0.00 0.00 0.00 0.00 0.00 0.00 0.00 0.02 0.06 0.15 0.24 0.22 0.26 0.34 0.61 0.46 0.60 1.14 1.49 1.15 1.09 0.72 1.42 1.51 1.17 0.82 0.46 0.19 0.08 0.04 0.04 0.02 0.02 0.06 0.08 0.09 0.11 0.08 0.06 0.05 0.09 0.15 0.18 0.16 0.20 0.19 0.06 0.02
0.00 0.00 0.00 0.00 0.00 0.00 0.00 0.00 0.01 0.06 0.11 0.15 0.16 0.16 0.27 0.75 1.04 0.79 0.89 1.05 1.36 1.10 0.53 0.94 1.36 1.41 1.05 0.62 0.38 0.18 0.09 0.05 0.03 0.04 0.06 0.04 0.12 0.11 0.18 0.17 0.05 0.08 0.21 0.30 0.27 0.35 0.19 0.04 0.01
0.00 0.00 0.00 0.00 0.00 0.00 0.00 0.03 0.04 0.07 0.12 0.12 0.13 0.25 0.42 0.78 1.05 0.59 0.61 1.17 1.70 1.42 0.99 0.92 1.48 1.80 2.24 1.43 0.78 0.43 0.21 0.06 0.06 0.07 0.05 0.20 0.23 0.32 0.51 0.45 0.23 0.24 0.30 0.44 0.45 0.43 0.15 0.03 0.00
0.00 0.00 0.00 0.00 0.00 0.01 0.00 0.03 0.18 0.34 0.41 0.36 0.17 0.12 0.49 0.69 0.82 1.28 1.56 1.96 2.26 2.25 2.01 1.35 2.13 2.90 4.10 4.62 3.36 2.23 1.26 0.75 0.51 0.52 0.65 0.51 0.44 0.84 0.71 0.47 0.47 0.43 0.38 0.38 0.55 0.46 0.14 0.08 0.03
0.00 0.00 0.00 0.00 0.00 0.00 0.01 0.05 0.16 0.39 0.41 0.23 0.10 0.16 0.86 0.70 0.59 1.23 2.02 2.88 3.53 3.15 2.80 2.72 2.27 2.72 3.64 5.98 6.17 5.53 5.61 3.44 1.63 1.22 1.17 1.17 1.07 0.84 0.53 0.44 0.62 0.40 0.33 0.43 0.31 0.15 0.08 0.07 0.10
0.00 0.00 0.00 0.00 0.00 0.01 0.02 0.15 0.35 0.21 0.08 0.14 0.26 0.53 0.90 0.76 0.75 1.18 2.01 2.76 3.71 5.65 5.53 4.89 3.88 3.01 2.30 3.00 4.31 4.66 4.21 4.55 3.92 2.78 1.83 2.38 1.86 1.29 0.66 0.49 0.63 0.82 0.75 0.57 0.19 0.20 0.23 0.15 0.18
0.00 0.00 0.00 0.00 0.00 0.04 0.09 0.16 0.18 0.08 0.19 0.62 0.28 0.51 1.25 1.25 0.89 1.37 2.85 3.13 4.64 8.06 7.52 5.83 4.87 3.16 1.54 1.91 2.21 2.57 3.89 2.86 2.43 3.26 2.85 2.21 1.65 1.26 1.03 0.89 0.92 0.94 0.86 1.04 1.24 1.04 0.92 0.59 0.40
0.00 0.00 0.00 0.00 0.02 0.13 0.21 0.32 0.22 0.08 0.04 0.30 0.54 0.94 1.19 0.84 0.62 1.07 2.04 3.10 3.79 6.02 6.49 6.30 4.37 3.01 1.54 1.02 1.13 1.13 2.31 2.94 2.50 1.39 2.25 2.28 1.65 1.42 1.38 1.24 1.33 1.62 1.48 1.36 0.91 0.69 0.50 0.43 0.42
0.00 0.00 0.00 0.00 0.01 0.12 0.16 0.03 0.15 0.24 0.16 0.39 0.91 1.20 0.78 0.46 0.62 0.83 0.95 1.53 2.21 3.38 3.58 5.26 4.50 3.12 2.22 1.68 1.22 0.81 1.15 2.07 2.72 1.76 1.18 1.51 1.49 1.23 1.28 1.41 1.36 1.37 1.41 1.13 0.86 0.73 0.56 0.54 0.39
0.00 0.00 0.00 0.00 0.01 0.11 0.03 0.01 0.03 0.08 0.25 0.77 1.56 1.68 0.86 0.57 0.66 0.91 0.82 0.70 0.75 1.24 1.56 2.39 3.64 4.17 3.19 1.94 1.44 0.79 0.91 1.63 2.68 2.43 1.13 1.10 1.30 1.24 0.91 0.82 1.11 1.14 1.46 1.16 1.13 0.80 0.60 0.51 0.40
0.00 0.00 0.00 0.00 0.00 0.02 0.05 0.07 0.06 0.31 0.75 0.42 0.36 0.52 0.68 0.79 0.61 0.65 0.79 0.34 0.37 0.71 0.94 1.85 2.26 2.29 2.61 2.75 1.65 0.87 0.59 1.21 1.94 2.46 1.16 1.12 0.97 1.13 0.71 0.46 0.55 0.76 0.88 1.09 1.53 1.44 1.04 0.96 0.69
0.00 0.00 0.00 0.01 0.01 0.01 0.01 0.06 0.11 0.25 0.10 0.07 0.18 0.29 0.52 0.58 0.45 0.23 0.27 0.25 0.41 0.47 0.69 1.30 1.16 0.93 1.10 1.90 2.51 1.47 1.01 1.17 1.71 2.36 1.23 0.86 0.71 0.83 0.64 0.48 0.54 0.48 0.48 0.69 0.93 1.21 1.21 1.24 1.18
0.00 0.00 0.00 0.02 0.00 0.00 0.00 0.23 0.18 0.54 0.16 0.08 0.05 0.18 0.43 0.34 0.39 0.38 0.33 0.14 0.21 0.39 0.58 0.93 0.74 0.81 0.81 1.13 1.81 2.07 1.49 1.53 1.86 1.96 1.31 1.04 0.87 0.79 0.68 0.55 0.54 0.52 0.53 0.64 0.85 1.19 1.29 1.35 1.53
0.00 0.00 0.00 0.00 0.01 0.01 0.04 0.22 0.14 0.13 0.10 0.06 0.02 0.06 0.16 0.10 0.31 0.28 0.10 0.14 0.22 0.41 0.63 1.04 1.27 0.63 0.83 0.95 1.23 1.75 1.53 1.34 1.68 2.03 1.81 1.27 1.08 0.72 0.77 0.75 0.72 0.61 0.60 0.67 0.91 1.16 1.29 1.07 1.02
0.00 0.00 0.00 0.00 0.01 0.02 0.11 0.51 0.05 0.05 0.03 0.03 0.02 0.03 0.03 0.09 0.10 0.04 0.04 0.10 0.18 0.37 0.45 0.95 1.53 0.96 0.87 0.88 1.05 1.35 1.40 1.28 1.12 1.33 1.65 1.51 1.34 1.15 0.98 0.76 0.84 1.01 0.88 0.77 0.89 1.10 1.63 1.50 1.09
0.00 0.00 0.00 0.00 0.00 0.01 0.05 0.35 0.22 0.07 0.08 0.05 0.01 0.00 0.00 0.00 0.01 0.03 0.04 0.04 0.08 0.22 0.34 0.72 1.03 1.20 1.16 0.94 0.96 0.93 0.93 1.18 0.88 0.98 1.04 1.31 1.80 1.82 1.43 1.33 1.43 1.39 1.40 1.43 1.62 1.83 1.95 1.56 1.26
0.00 0.00 0.00 0.02 0.07 0.00 0.00 0.03 0.16 0.19 0.07 0.04 0.01 0.00 0.00 0.00 0.00 0.03 0.08 0.04 0.05 0.18 0.44 0.86 0.94 1.10 1.10 0.80 0.67 0.68 0.81 0.92 0.98 0.92 0.93 1.19 1.27 1.27 1.36 1.54 1.77 1.79 1.61 1.29 1.08 1.17 1.32 1.30 1.16
0.01 0.01 0.00 0.00 0.00 0.00 0.00 0.00 0.02 0.14 0.04 0.02 0.03 0.01 0.01 0.00 0.01 0.04 0.07 0.08 0.06 0.13 0.38 0.49 0.73 0.92 0.65 0.41 0.36 0.41 0.49 0.58 0.95 1.02 0.76 0.99 1.25 1.22 1.12 1.40 2.15 2.28 1.46 1.01 1.07 1.34 1.35 1.20 1.06
0.02 0.03 0.01 0.01 0.01 0.00 0.00 0.00 0.00 0.02 0.00 0.00 0.00 0.00 0.00 0.00 0.00 0.01 0.03 0.05 0.08 0.17 0.38 0.48 0.32 0.28 0.35 0.35 0.21 0.16 0.22 0.35 0.69 1.03 0.81 0.85 0.97 1.02 1.12 0.94 1.05 1.60 1.87 1.70 1.24 1.24 1.51 1.38 1.28
0.01 0.05 0.02 0.03 0.01 0.00 0.01 0.00 0.00 0.00 0.02 0.07 0.01 0.00 0.00 0.00 0.02 0.02 0.04 0.04 0.06 0.09 0.16 0.30 0.13 0.08 0.08 0.16 0.25 0.24 0.21 0.39 1.10 1.40 1.09 0.86 0.95 0.98 1.08 1.05 0.96 1.13 1.77 1.77 1.34 0.99 1.16 1.59 1.50
0.01 0.00 0.01 0.02 0.09 0.06 0.03 0.08 0.02 0.01 0.02 0.06 0.01 0.01 0.00 0.01 0.01 0.00 0.00 0.00 0.03 0.03 0.07 0.29 0.15 0.07 0.06 0.06 0.11 0.16 0.19 0.21 0.54 1.07 0.98 0.82 1.13 1.09 0.96 1.14 1.17 1.07 1.07 1.37 1.36 1.10 0.99 1.51 1.50
0.02 0.00 0.02 0.03 0.09 0.20 0.05 0.31 0.07 0.02 0.00 0.02 0.01 0.00 0.00 0.01 0.01 0.01 0.01 0.00 0.00 0.06 0.08 0.23 0.22 0.28 0.17 0.15 0.21 0.35 0.28 0.21 0.30 0.94 1.28 1.04 1.10 1.29 1.33 1.30 1.45 1.51 1.61 1.23 1.74 1.64 1.52 1.65 1.38
0.02 0.04 0.10 0.14 0.27 0.57 0.05 0.22 0.12 0.03 0.02 0.06 0.08 0.05 0.02 0.02 0.03 0.04 0.02 0.02 0.02 0.02 0.11 0.19 0.17 0.28 0.32 0.42 0.41 0.37 0.41 0.30 0.28 0.58 1.14 1.42 1.30 1.34 1.33 1.34 1.35 1.29 1.36 1.51 1.79 2.17 2.18 2.20 1.97
0.08 0.27 0.72 0.74 0.64 0.47 0.05 0.08 0.09 0.07 0.18 0.31 0.31 0.26 0.15 0.11 0.10 0.09 0.06 0.06 0.07 0.05 0.17 0.20 0.20 0.32 0.36 0.41 0.36 0.39 0.47 0.62 0.61 0.60 0.95 1.43 1.74 1.56 1.08 1.21 1.23 1.19 1.00 1.09 1.42 1.91 2.13 2.52 2.68
0.09 0.38 0.75 0.74 0.29 0.10 0.07 0.09 0.05 0.13 0.20 0.37 0.61 0.47 0.38 0.24 0.11 0.16 0.16 0.18 0.21 0.20 0.22 0.34 0.33 0.50 0.48 0.54 0.69 0.65 0.69 0.83 0.92 0.71 0.87 1.40 1.32 1.17 0.93 1.12 1.28 1.25 1.29 1.34 1.33 1.51 1.53 1.62 1.97
0.49 0.63 0.23 1.05 0.73 0.76 0.15 0.08 0.12 0.24 0.35 0.30 0.44 0.43 0.38 0.32 0.20 0.19 0.21 0.24 0.28 0.30 0.29 0.34 0.36 0.59 0.63 0.66 0.88 0.95 1.02 1.12 1.09 0.95 0.92 1.14 1.28 1.40 1.32 1.43 1.45 1.43 1.39 1.43 1.49 1.43 1.39 1.44 1.46
0.56 0.59 1.36 2.66 2.71 1.46 0.38 0.39 1.12 1.03 0.68 0.95 0.83 0.49 0.36 0.31 0.30 0.27 0.27 0.31 0.32 0.34 0.37 0.54 0.41 0.39 0.58 0.77 0.81 0.74 0.85 1.06 1.09 1.00 0.93 1.09 1.60 1.90 2.05 2.09 1.87 1.78 1.72 1.76 1.76 1.63 1.54 1.69 1.64
0.78 1.38 2.57 2.98 2.29 1.90 1.40 1.86 1.86 1.94 1.24 0.92 0.50 0.37 0.41 0.31 0.38 0.53 0.61 0.51 0.57 0.57 0.56 0.68 0.77 0.87 0.91 0.88 0.83 0.93 1.14 1.50 1.52 1.48 1.37 1.47 1.91 2.19 2.07 2.22 2.39 2.13 2.16 2.15 2.10 2.03 1.94 1.87 1.80
0.89 1.70 2.83 4.87 4.11 3.25 3.24 3.54 2.32 1.77 1.47 0.83 0.25 0.11 0.11 0.26 0.28 0.41 0.96 1.11 1.06 1.07 1.21 1.06 1.00 1.13 1.24 1.19 1.26 1.76 2.16 2.32 2.24 2.25 2.45 2.25 1.97 1.88 1.83 2.03 2.20 2.16 2.31 2.45 2.40 2.30 2.17 2.12 2.23